Regional Weather Roundup
Issued by NWS Kansas City/Pleasant Hill, MO

Home | Current Version | Previous Version | Text Only | Print | Product List | Glossary On
Versions: 1 2 3 4 5 6 7 8 9 10 11 12 13 14 15 16 17 18 19 20 21 22 23 24 25 26 27 28 29 30 31 32 33 34 35 36 37 38 39 40 41 42 43 44 45 46 47 48 49 50
000
ASUS43 KEAX 280910
RWREAX

WEATHER ROUNDUP FOR EASTERN KANSAS AND NORTHWEST MISSOURI
NATIONAL WEATHER SERVICE KANSAS CITY/PLEASANT HILL MO
400 AM CDT FRI AUG 28 2015

KSZ040-057-103>105-MOZ028-029-037-043-281000-
...KANSAS CITY METROPOLITAN AREA...

CITY           SKY/WX    TMP DP  RH WIND       PRES   REMARKS
K.C. INTL      CLOUDY    70  64  81 S9        29.97S
K.C. DOWNTOWN  CLOUDY    71  66  84 S8        29.98R
LEES SUMMIT    CLOUDY    68  63  84 S7        30.00R
OLATHE - IXD   CLOUDY    69  66  90 S12       29.99R
OLATHE - OJC   CLOUDY    67  66  97 S7        29.99R
LAWRENCE       CLOUDY    70  64  81 E5        29.97S

$$

MOZ001>008-011>017-020>025-030>033-038>040-044>046-053-054-281000-
...NORTHERN AND CENTRAL MISSOURI...

CITY           SKY/WX    TMP DP  RH WIND       PRES   REMARKS
ST. JOSEPH     CLOUDY    70  66  87 SE9       29.94F
MOSBY            N/A     68  64  88 SE3       29.99R
WARRENSBURG    CLOUDY    64  61  88 SE5       30.02R
WHITEMAN AFB   PTCLDY    65  61  87 S7        30.02R
CLINTON          N/A     68  63  83 S3        30.03R HAZE
SEDALIA        CLOUDY    64  60  87 SE6       30.05R
WARSAW         NOT AVBL
CHILLICOTHE      N/A     66  61  84 SE7       30.02F
KIRKSVILLE     MOCLDY    61  58  90 SE9       30.06F

$$

MOZ041-047>049-056>058-063>065-088>090-097-281000-
...EASTERN AND SOUTHERN MISSOURI...

CITY           SKY/WX    TMP DP  RH WIND       PRES   REMARKS
ST. LOUIS INTL MOCLDY    64  58  80 E6        30.10S
SPIRIT OF STL  CLEAR     59  58  96 CALM      30.09S
COLUMBIA       MOCLDY    61  59  93 SE8       30.07S
JEFFERSON CITY MOCLDY    64  59  83 E7        30.07R
ROLLA          MOCLDY    60  57  89 SE5       30.08R
OSAGE BEACH    MOCLDY    63  55  77 S3        30.07S
SPRINGFIELD    PTCLDY    64  59  83 S12       30.04F
BRANSON        CLOUDY    59  57  94 CALM      30.08S
JOPLIN         MOCLDY    67  62  84 S10       30.02R
WEST PLAINS    PTCLDY    60  55  83 CALM      30.10R

$$

IAZ060-094-KSZ022-034>040-054-083-096-NEZ052-066-093-281000-
...KANSAS...SOUTHEAST NEBRASKA AND IOWA...

CITY           SKY/WX    TMP DP  RH WIND       PRES   REMARKS
TOPEKA         LGT RAIN  70  64  81 SE8       29.95S
MANHATTAN      RAIN      70  69  97 SW9       29.92F FOG
EMPORIA        CLOUDY    68  64  87 S5        29.95F
CHANUTE        CLOUDY    66  63  90 S7        30.00R
WICHITA        CLOUDY    73  67  81 S10       29.93F
OMAHA          TSTM      68  66  93 SE26G36   29.85F
LINCOLN        CLOUDY    71  68  90 S12       29.83F
FALLS CITY     CLOUDY    69  65  86 SE8       29.91S
LAMONI         CLOUDY    66  61  84 S5        30.01R
DES MOINES     LGT RAIN  65  60  84 E9        30.02S

$$



USA.gov is the U.S. government's official web portal to all federal, state and local government web resources and services.